Showing default

BADR B, 27003

Orbit data source: Space-Track

BADR B, 27003 is a payload satellite owned by SUPARCO (PK) in SSO that was launched on Mon, 10 Dec 2001 UTC via a ZENIT-2 launch vehicle from the Tyuratam Missile And Space Complex (TTMTR). Payload-class satellites include a variety of spacecraft equipped with specific instruments for various scientific and technological missions. These include communications satellites like Starlink; space stations such as the ISS; scientific satellites like the Hubble; Earth observation satellites from companies like Planet Labs, Umbra, and HawkEye 360; GPS; miniature CubeSats for education and research; and military/defense satellites.

Loading next visibility...
Identifier
27003, 2001-056C
Orbit
SSO
Country
Flag of PKPK / PAKI
Related business
Manufacturer
SIL
Mission
Non-operational Civil Imaging
Bus & Motor
MICROSIL, Unknown motor
Mass
69 kg wet, 69 kg dry
Launch date (UTC)
2001-12-10 (24 years ago)
Launch vehicle
ZENIT-2
Launch site
Tyuratam Missile And Space Complex (TTMTR)
Object type
Payload
Rocket body
Debris
Shape & HBR
Box + 1 Arm, 3.3 m
Radar Cross Section
0.375 m², Medium (>0.1 m² and < 1m²)

Expand to show TLE details & history
Last TLE update: 9 hours ago

TLE from 9 hours ago
0 BADR B
1 27003U 01056C   26150.45869470 -.00000008  00000-0  43624-4 0  9993
2 27003  99.8027 325.7729 0020255 179.9843 180.1306 13.70407509223517
Epoch: 2026-05-30T11:00Z
TLE epoch observation values (Epoch: 2026-05-30T11:00:31.222Z)
Latitude
-0.00002°
Longitude
-87.33162°
Altitude
1,015.862 km
Speed
7.336 km/s
True Right ascension
21h 43m 05s
True Declination
0° 00' 00"
Sunlit
Object was in daylight at epoch
Visualization orbit readout
Latitude
Unknown
Longitude
Unknown
Altitude
Unknown
Speed
Unknown
Apparent Right ascension
Unknown
Apparent Declination
Unknown
Sunlit
N/A
Visualization observer readout
Local Sidereal Time
05:27:16
Azimuth
Unknown
Elevation
Unknown
Doppler factor
Unknown
Orbital elements
Apogee altitude
1,010.323 km
Perigee altitude
980.453 km
Semi-major axis
7,373.525 km
Eccentricity
0.00203
Inclination
99.8027°
RAAN
325.7729°
Arg. of periapsis
179.9843°
True anomaly
180.13007°
Mean anomaly
180.1306°
Eccentric anomaly
180.13034°
Mean motion
3.42792 °/min
Orbital period
105.02 mins
BSTAR
0.000043624
Loading maneuver chart data...
Computing Atmospheric mass density...
Loading historical data...
Loading historical data...
Loading historical data...
Loading historical data...
Loading historical data...
Loading historical data...
Loading historical data...

Documentation

Showing up to 5 results
|